This demonstration page uses our WeatherBlox Daily Observations layout. Learn more.

Left ArrowRight Arrow

34.02893, -84.19858

Hourly Observations for May 19, 2015

Temp ( °F °C ) Dew Point ( °F °C ) Humidity (%) Winds ( mph kmh ) Pressure ( in mb ) Visibility ( mi km ) Precip ( " mm )
12:53 am 00:53 Clear 69 20.6 67 19.4 93 93 Calm 30.09 1019 8 13 0.00 0.00
1:53 am 01:53 Clear 67 19.4 66 18.9 97 97 N 3 6 30.07 1018 8 13 0.00 0.00
2:53 am 02:53 Clear 67 19.4 66 18.9 97 97 W 3 6 30.06 1018 7 11 0.00 0.00
3:53 am 03:53 Clear 66 18.9 65 18.3 96 96 SW 3 6 30.04 1017 6 10 0.00 0.00
4:53 am 04:53 Clear 67 19.4 66 18.9 97 97 W 3 6 30.04 1017 7 11 0.00 0.00
5:53 am 05:53 Clear 67 19.4 66 18.9 97 97 W 6 9 30.05 1018 8 13 0.00 0.00
6:53 am 06:53 Sunny 67 19.4 66 18.9 97 97 WSW 3 6 30.07 1018 5 8 0.00 0.00
7:53 am 07:53 Partly Cloudy with Mist and Fog 69 20.6 67 19.4 93 93 WNW 6 9 30.07 1018 5 8 0.00 0.00
8:53 am 08:53 Sunny with Mist and Fog 71 21.7 68 20 90 90 NW 6 9 30.09 1019 6 10 0.00 0.00
9:53 am 09:53 Sunny 75 23.9 68 20 79 79 NW 6 9 30.08 1019 7 11 0.00 0.00
10:53 am 10:53 Sunny 78 25.6 67 19.4 69 69 N 8 13 30.07 1018 9 14 0.00 0.00
11:53 am 11:53 Mostly Sunny 80 26.7 66 18.9 62 62 NW 8 13 30.08 1019 9 14 0.00 0.00
12:53 pm 12:53 Partly Cloudy 83 28.3 67 19.4 59 59 WNW 9 15 30.06 1018 9 14 0.00 0.00
1:53 pm 13:53 Mostly Cloudy 82 27.8 65 18.3 56 56 NNW 10 17 30.05 1018 8 13 0.00 0.00
2:53 pm 14:53 Partly Cloudy 85 29.4 65 18.3 51 51 NNW 9 15 30.02 1017 8 13 0.00 0.00
3:53 pm 15:53 Mostly Cloudy 84 28.9 65 18.3 53 53 NW 7 11 30.01 1016 8 13 0.00 0.00
4:53 pm 16:53 Mostly Sunny 84 28.9 65 18.3 53 53 W 10 17 29.98 1015 8 13 0.00 0.00
5:30 pm 17:30 Cloudy with Light Rain 75 24 70 21 83 83 NW 10 17 30.00 1016 2 3 0.00 0.00
5:39 pm 17:39 Cloudy with Light Rain 80 26.7 69 20.6 69 69 WNW 9 15 29.97 1015 6 10 0.02 0.51
5:53 pm 17:53 Mostly Cloudy 79 26.1 70 21.1 74 74 N 9 15 29.98 1015 10 16 0.02 0.51
6:53 pm 18:53 Mostly Sunny 81 27.2 67 19.4 62 62 NW 6 9 29.97 1015 8 13 0.00 0.00
7:53 pm 19:53 Sunny 79 26.1 65 18.3 62 62 W 6 9 29.98 1015 8 13 0.00 0.00
8:53 pm 20:53 Clear 75 23.9 67 19.4 76 76 W 3 6 29.98 1015 8 13 0.00 0.00
9:53 pm 21:53 Clear 74 23.3 66 18.9 76 76 W 5 7 29.98 1015 9 14 0.00 0.00
10:53 pm 22:53 Clear 73 22.8 66 18.9 79 79 WNW 5 7 29.99 1016 9 14 0.00 0.00
11:53 pm 23:53 Clear 70 21.1 66 18.9 87 87 Calm 29.99 1016 8 13 0.00 0.00

Powered by AerisWeather